DMSP 5D-2 F13 DEB, 40400

Orbit data source: Space-Track

DMSP 5D-2 F13 DEB, 40400 is space debris in SSO originally from a launch on Fri, 24 Mar 1995 UTC launched from the Air Force Western Test Range (AFWTR). Debris objects in space refer to the collection of defunct objects orbiting the Earth. Examples of debris include non-operational satellites, rocket bodies, and fragments generated from explosions, collisions, or faulty payload assembly.

Loading next visibility...
Identifier
40400, 1995-015M
Orbit
SSO
Country
Flag of USUS
Related business
Manufacturer
Unknown
Mission
Spacecraft
Bus & Motor
Unknown
Mass
Unknown
Launch date (UTC)
1995-03-24 (31 years ago)
Launch vehicle
Unknown
Launch site
Air Force Western Test Range (AFWTR)
Object type
Payload
Rocket body
Debris
Shape & HBR
Unknown shape, 0.1 m
Radar Cross Section
Small (<0.1 m²)

Expand to show TLE details & history
Last TLE update: 10 hours ago

TLE from 10 hours ago
0 DMSP 5D-2 F13 DEB
1 40400U 95015M   25289.13010394  .00003831  00000-0  10754-2 0  9999
2 40400  98.4948 315.3256 0133363  22.7337 337.9683 14.41435730555950
Epoch: 2025-10-16T03:07Z
TLE epoch observation values (Epoch: 2025-10-16T03:07:20.980Z)
Latitude
-0.00006°
Longitude
-116.40606°
Altitude
668.706 km
Speed
7.569 km/s
True Right ascension
21h 01m 18s
True Declination
0° 00' 00"
Sunlit
Object was in daylight at epoch
Visualization orbit readout
Latitude
Unknown
Longitude
Unknown
Altitude
Unknown
Speed
Unknown
Apparent Right ascension
Unknown
Apparent Declination
Unknown
Sunlit
N/A
Visualization observer readout
Local Sidereal Time
07:55:08
Azimuth
Unknown
Elevation
Unknown
Doppler factor
Unknown
Orbital elements
Apogee altitude
845.952 km
Perigee altitude
655.803 km
Semi-major axis
7,129.015 km
Eccentricity
0.01334
Inclination
98.4948°
RAAN
315.3256°
Arg. of periapsis
22.7337°
True anomaly
337.38605°
Mean anomaly
337.9683°
Eccentric anomaly
337.67808°
Mean motion
3.60578 °/min
Orbital period
99.84 mins
BSTAR
0.0010754
Loading maneuver chart data...
Computing Atmospheric mass density...

Documentation

Showing up to 5 results
|